Miscellaneous Local Product
Issued by NWS North Platte, NE

Home | Current Version | Previous Version | Text Only | Print | Product List | Glossary On
Versions: 1 2 3 4 5 6 7 8 9 10 11 12 13 14 15 16 17 18 19 20 21 22 23 24 25 26 27 28 29 30 31 32 33 34 35 36 37 38 39 40 41 42 43 44 45 46 47 48 49 50
000
AXUS43 KLBF 280510
MISLBF


WESTERN AND NORTH CENTRAL NEBRASKA HOURLY WEATHER ROUNDUP
NATIONAL WEATHER SERVICE NORTH PLATTE NE
1200 AM CDT WED JUN 28 2017

NOTE: "FAIR" INDICATES FEW OR NO CLOUDS BELOW 12,000 FEET WITH NO
SIGNIFICANT WEATHER AND/OR OBSTRUCTIONS TO VISIBILITY.

NOTE: STATIONS NOT REPORTING VARIABLES SUCH AS SKY/WEATHER OR
PRESSURE ARE PROVIDED BY RAWS AND APRS NETWORKS AND ARE NOT UNDER
NATIONAL WEATHER SERVICE QUALITY CONTROL.

...OBSERVATIONS IN AND NEAR THE EASTERN PANHANDLE OF NEBRASKA...

CITY           SKY/WX    TMP DP  RH WIND       PRES   REMARKS
PINE RIDGE     CLOUDY    60  57  89 NW5       29.76R
GORDON         FAIR      62  55  79 CALM      29.75F
CHADRON        CLOUDY    64  53  67 W12       29.76R
ALLIANCE       CLOUDY    63  55  75 NW12      29.79R
SIDNEY         CLOUDY    60  53  77 N8        29.84F
CRESCENT LAKE    N/A     59  54  83 SW6         N/A
$$

...OBSERVATIONS IN NORTHERN NEBRASKA AND FAR SOUTHERN SOUTH DAKOTA...

CITY           SKY/WX    TMP DP  RH WIND       PRES   REMARKS
WINNER         FAIR      73  53  49 SW9       29.61F
VALENTINE      LGT RAIN  69  54  58 S6        29.72R
THEDFORD       CLOUDY    65  60  83 NW15G26   29.78F
AINSWORTH      CLOUDY    66  58  74 N13       29.71F
O`NEILL        LGT RAIN  73  63  70 SW14G21   29.66R
ORD            CLOUDY    68  59  73 SW5G16    29.71F
BROKEN BOW     CLOUDY    66  60  81 CALM      29.74R
VALENTINE NWR    N/A     68  63  84 N9G18       N/A
HALSEY           N/A     76  51  40 W15G26      N/A
BUTTE            N/A     64  60  86 NW8G17      N/A
CHAMBERS         N/A     70  58  64 S8          N/A
EWING            N/A     67  65  92 S7G16       N/A
$$

...OBSERVATIONS IN SOUTHWEST NEBRASKA AND FAR NORTHEAST COLORADO...

CITY           SKY/WX    TMP DP  RH WIND       PRES   REMARKS
WRAY           FAIR      73  46  38 N12       29.81R
IMPERIAL       CLOUDY    71  49  45 S6        29.77R
OGALLALA       CLOUDY    70  56  60 NE12      29.77R
NORTH PLATTE   CLOUDY    70  58  65 N10       29.78R
MCCOOK         CLOUDY    79  54  41 SW15G23   29.70R
LEXINGTON      CLOUDY    66  62  86 NE7       29.74R
STAPLETON        N/A     64  60  86 CALM        N/A
GOTHENBURG       N/A     65  59  82 E9          N/A
CALLAWAY         N/A     64  59  84 SE9         N/A
$$

...OBSERVATIONS IN CENTRAL LINCOLN COUNTY AREA...

CITY           SKY/WX    TMP DP  RH WIND       PRES   REMARKS
N.P. AIRPORT   CLOUDY    70  58  65 N10       29.78R
N.P. DOWNTOWN    N/A     72  58  61 CALM        N/A
N.P. SOUTHEAST   N/A     71  57  61 CALM        N/A
N.P. HILLCREST   N/A     68  59  74 E9          N/A
$$

...SOME OBSERVATIONS FROM AROUND THE REGION...

CITY           SKY/WX    TMP DP  RH WIND       PRES   REMARKS
DENVER         PTCLDY    66  39  37 E7        29.92R
LIMON          CLEAR     70  38  31 N21       29.91R
ASPEN          CLOUDY    56  29  35 S9        30.11R
LARAMIE        CLEAR     54  42  64 N9        30.06R
CASPER         CLEAR     53  41  63 W3        29.98R
CHEYENNE       CLOUDY    62  39  42 N7        29.97R
SCOTTSBLUFF    CLOUDY    61  52  72 NW8       29.82R
GRAND ISLAND   TSTM      64  64 100 E5        29.80R
OMAHA          MOCLDY    75  65  70 SE22G28   29.75F
SIOUX FALLS    CLOUDY    71  67  87 S15       29.67F THUNDER
PIERRE         CLOUDY    73  54  51 W25G39    29.47F
RAPID CITY     CLOUDY    65  51  60 NW13      29.74R
BISMARCK       CLOUDY    67  65  93 NW6       29.53S
KANSAS CITY    CLEAR     74  66  76 S14G24    29.89F
HILL CITY      CLOUDY    86  59  39 SW23G31   29.74R
WICHITA        PTCLDY    78  66  66 S16       29.85F
DODGE CITY     CLOUDY    80  62  54 S23G35    29.79S
OKLAHOMA CITY  PTCLDY    76  65  68 S16       29.94R
DALLAS         PTCLDY    79  73  82 SE7       29.94S
$$




USA.gov is the U.S. government's official web portal to all federal, state and local government web resources and services.